Wetbulb
66.55 71.19 72.67 72.41 71.65 71.07 71.21 71.52 71.94 72.19 72.56 72.86 72.96 72.92 72.68 72.39 72.21 72.21 71.96 71.73 71.45 70.21 70.00 69.97 69.95 69.88 69.90 69.51 69.12 68.87 68.75 69.28 69.77 69.78 69.29 68.88 67.93 68.03 67.48 67.57 67.34 66.29 68.66
68.73 71.63 71.93 71.97 71.64 70.97 71.22 71.71 72.06 72.31 72.78 72.72 72.58 72.57 72.21 72.07 71.81 71.88 71.76 71.83 71.37 70.13 70.03 69.80 69.26 68.85 68.36 68.17 67.83 67.97 67.94 68.59 68.74 68.72 67.84 67.81 67.75 67.94 67.42 67.03 66.98 65.72 66.57
69.64 71.18 71.67 71.18 71.32 71.21 71.36 72.03 72.38 72.62 72.66 72.08 71.92 72.15 71.95 71.51 71.29 71.13 71.35 71.67 71.23 70.14 69.79 69.50 68.79 67.83 67.48 67.13 67.32 67.48 67.39 67.45 67.36 66.94 67.53 64.20 65.07 67.41 67.64 67.06 67.23 66.30 66.05
70.01 70.91 71.31 70.80 71.15 71.30 71.35 72.02 72.36 72.47 72.36 72.25 71.96 71.41 71.36 71.24 71.09 70.69 70.77 71.16 71.22 70.27 69.89 69.63 68.72 67.56 67.18 67.35 67.49 67.45 67.22 66.90 66.10 66.53 64.55 65.05 65.04 66.93 66.78 66.72 66.36 65.94 65.55
69.86 70.73 70.95 70.31 70.82 71.22 71.42 71.73 72.08 72.27 72.10 71.96 71.55 71.29 71.09 71.05 70.81 70.66 70.72 70.79 70.99 70.47 70.17 69.53 68.02 67.08 66.90 67.52 67.64 66.95 66.61 66.92 64.76 62.71 62.42 64.53 63.65 66.80 66.87 66.16 65.95 65.57 65.59
69.55 70.53 70.18 69.66 70.53 71.25 71.51 71.63 72.01 71.83 71.57 71.31 71.31 71.38 71.06 70.85 70.70 70.41 70.71 70.82 70.69 69.90 69.17 68.20 67.15 66.74 66.89 67.00 67.03 66.61 66.30 66.11 63.64 61.80 62.84 64.77 63.73 66.92 66.25 65.59 65.70 65.51 66.13
69.19 69.97 69.85 69.00 70.18 71.38 72.11 71.71 71.26 71.23 71.12 70.87 71.12 71.17 71.12 71.23 70.90 70.75 70.42 70.35 70.17 69.42 68.29 67.51 66.94 66.84 66.79 66.56 66.74 66.29 66.12 66.11 63.21 62.64 62.53 64.22 63.70 67.43 66.14 65.56 65.25 65.54 65.17
68.61 69.58 69.42 69.98 69.94 70.99 71.58 71.11 70.38 70.38 70.36 70.24 70.71 70.82 71.02 70.84 70.42 70.49 70.54 70.26 69.91 69.34 68.50 67.60 66.97 66.76 66.70 66.58 66.39 65.85 65.52 66.12 63.70 63.33 62.58 62.73 64.96 68.20 66.69 65.96 66.21 66.14 65.64
69.06 68.95 68.75 68.85 69.30 70.13 69.94 69.49 69.04 69.24 69.39 69.50 69.61 69.93 69.99 69.38 69.24 69.50 69.61 69.93 69.61 68.79 68.11 67.43 66.93 66.48 66.47 66.23 65.83 65.29 65.06 65.92 63.18 63.65 63.70 62.55 67.43 68.58 68.01 67.05 66.12 66.21 66.07
68.13 68.47 68.41 67.64 68.07 68.18 68.82 68.64 68.32 68.27 68.36 68.56 68.70 68.83 68.27 68.13 68.55 68.82 68.68 69.22 69.17 68.79 68.13 67.63 66.88 66.46 66.08 65.71 65.25 64.95 64.66 65.01 63.89 64.23 63.23 63.34 67.59 68.80 69.04 68.78 68.07 68.00 67.71
66.57 67.72 68.22 68.27 66.83 66.52 66.70 68.34 68.43 68.56 68.18 67.91 68.18 68.12 66.68 66.04 66.34 67.24 67.56 67.89 68.65 68.23 68.08 67.65 66.77 65.80 65.28 65.04 65.06 64.97 65.08 64.31 64.30 64.61 63.34 65.53 67.89 68.87 69.27 69.68 68.93 68.36 68.06
64.74 66.10 67.32 67.71 67.49 65.88 67.50 66.47 65.86 66.72 66.63 66.43 66.72 66.18 65.36 64.44 64.49 66.21 66.35 66.99 67.69 67.49 67.17 66.75 66.26 65.70 65.23 63.75 63.67 64.44 63.78 64.52 64.79 65.23 64.75 65.18 67.43 68.38 69.41 69.88 69.12 68.53 68.23
64.50 65.94 66.50 66.98 67.27 65.75 66.32 65.70 64.86 64.70 64.67 64.97 65.39 65.07 63.99 63.86 63.67 64.41 63.58 64.20 63.84 66.19 64.19 64.90 64.25 63.74 63.73 63.36 63.54 64.17 64.81 65.74 65.04 63.49 63.21 64.68 67.16 67.32 68.54 68.60 69.90 69.48 68.34
61.78 64.52 66.08 66.61 66.37 65.66 65.56 65.40 64.62 64.70 64.25 64.45 64.84 64.33 63.28 62.08 61.55 62.21 62.15 61.92 62.39 63.20 63.24 62.77 62.39 62.58 62.33 63.45 64.53 65.37 64.68 62.59 62.09 59.91 59.37 62.36 64.85 66.44 67.76 68.87 67.90 66.60 65.44
61.03 62.87 64.22 65.90 65.89 65.50 64.58 64.89 64.19 64.31 64.73 64.54 64.44 64.67 64.05 62.11 61.28 61.68 62.10 61.98 61.99 62.88 62.70 62.13 62.18 61.91 62.85 63.86 64.55 63.82 58.30 55.83 55.01 55.23 54.13 61.46 64.86 66.92 67.83 67.20 65.51 63.68 62.54
62.26 61.82 63.62 64.70 65.60 65.56 64.73 64.32 64.03 64.23 64.29 64.27 64.45 64.71 64.72 63.37 62.08 61.74 62.32 62.81 62.46 62.82 62.90 62.05 62.56 64.16 63.31 63.01 56.24 55.41 53.07 52.01 52.72 52.86 53.96 58.26 61.95 63.25 64.36 64.46 62.32 61.31 60.88
63.61 62.94 62.44 64.11 65.10 64.86 64.68 64.21 63.91 63.87 64.17 63.99 64.12 64.35 64.67 64.01 62.93 62.62 63.00 63.01 63.18 62.84 62.81 62.19 63.98 60.42 55.34 53.45 51.76 50.41 50.25 50.39 50.35 51.30 52.49 51.74 53.55 58.55 61.20 62.43 60.36 58.08 57.56
64.69 63.42 63.09 64.00 64.10 64.33 64.44 63.95 63.81 63.55 63.58 63.60 63.95 64.04 64.51 64.69 64.33 63.58 63.48 63.85 64.24 63.57 63.63 63.74 61.97 55.16 53.87 51.50 49.14 47.65 48.10 48.60 48.74 49.25 49.30 48.62 48.36 48.77 53.31 56.78 56.81 56.51 57.77
65.77 64.93 63.90 63.62 63.11 63.57 63.79 63.73 62.94 62.90 63.25 63.54 63.82 64.12 64.51 65.09 65.41 65.11 65.06 65.40 64.96 65.06 64.75 63.64 56.98 54.68 52.18 49.73 47.82 46.16 45.96 46.41 47.16 48.19 47.54 47.69 48.19 47.70 47.94 52.59 52.62 53.82 55.35
66.98 66.55 65.71 64.90 64.09 63.37 63.28 63.51 63.29 63.02 63.27 63.75 63.80 64.39 64.85 65.43 65.95 66.07 65.64 64.78 64.96 64.67 61.77 58.51 54.96 51.35 50.57 48.71 46.66 45.05 44.51 44.63 45.62 46.27 46.57 47.53 47.47 47.66 47.69 47.61 47.37 48.04 53.22
65.72 66.60 66.55 66.11 65.54 64.34 62.98 62.70 63.08 62.60 63.38 63.69 64.44 64.79 65.15 65.88 65.97 65.87 65.83 64.43 64.13 62.43 60.18 56.40 51.10 48.37 46.49 46.19 43.40 43.02 44.52 44.48 44.67 45.03 46.05 46.10 47.06 47.06 47.30 46.94 46.84 46.68 47.19
65.07 66.21 66.81 67.03 66.54 65.54 65.13 64.66 64.24 64.13 64.42 65.06 65.79 65.59 65.79 65.79 66.12 66.35 65.27 63.98 62.98 60.39 55.27 52.19 49.05 46.06 45.76 44.86 42.76 40.57 40.05 42.27 44.00 44.89 45.19 45.94 46.06 46.53 46.79 47.19 47.13 46.87 46.26
64.65 64.73 66.35 66.93 67.32 67.07 66.70 65.94 64.94 64.59 63.98 65.97 66.06 65.76 65.78 65.97 66.24 66.10 65.12 63.90 62.28 60.49 56.40 52.26 49.23 47.74 44.68 44.32 43.37 41.69 38.11 37.61 40.57 43.02 44.38 45.07 45.82 45.57 45.81 46.18 46.58 46.60 46.38
61.57 64.91 64.77 66.44 66.93 67.50 67.21 66.25 65.58 64.95 63.82 65.04 65.46 66.25 66.24 65.94 65.83 65.81 64.71 62.97 61.66 59.44 57.16 52.80 49.96 47.18 45.89 43.68 43.84 44.55 42.57 41.60 38.57 38.15 43.10 44.01 44.92 45.50 45.45 45.68 45.40 46.09 45.72
53.18 57.76 62.55 64.29 65.70 66.97 67.34 67.16 66.19 65.16 65.59 65.38 65.47 65.79 65.85 65.58 65.61 65.34 63.64 61.53 60.09 58.25 56.07 53.47 47.61 45.69 45.10 44.50 43.18 42.81 43.15 42.68 42.58 40.96 39.20 41.40 44.41 44.56 45.16 45.07 44.52 44.64 44.01
50.63 52.53 55.36 60.16 64.34 66.07 67.09 67.31 66.44 65.61 65.54 64.81 64.41 64.75 65.45 65.08 64.83 63.64 62.00 60.40 58.96 56.26 55.69 53.02 48.79 46.10 45.12 44.51 44.11 44.45 43.64 42.74 41.99 41.58 40.99 40.97 41.90 44.01 44.34 44.28 43.53 43.19 42.31
MSLP
1012.65 1012.82 1013.34 1013.86 1014.20 1014.15 1014.39 1014.87 1015.06 1015.31 1015.59 1015.80 1016.13 1016.46 1016.69 1016.86 1017.07 1017.21 1017.32 1017.44 1017.59 1017.74 1017.88 1018.05 1018.17 1018.28 1018.34 1018.44 1018.58 1018.62 1018.62 1018.68 1018.70 1018.62 1018.49 1018.51 1018.55 1018.55 1018.64 1018.61 1018.56 1018.55 1018.45
1011.90 1012.60 1013.31 1013.78 1014.16 1014.32 1014.66 1015.10 1015.27 1015.46 1015.83 1016.10 1016.43 1016.73 1016.95 1017.11 1017.23 1017.39 1017.49 1017.63 1017.82 1017.98 1018.15 1018.32 1018.47 1018.58 1018.67 1018.73 1018.83 1018.91 1018.92 1018.96 1019.04 1019.04 1018.97 1018.90 1018.89 1018.93 1018.88 1018.85 1018.86 1018.82 1018.81
1012.03 1012.67 1013.43 1013.80 1014.09 1014.43 1014.72 1015.29 1015.50 1015.78 1015.98 1016.25 1016.63 1016.90 1017.18 1017.40 1017.59 1017.75 1017.81 1017.88 1018.10 1018.29 1018.45 1018.57 1018.73 1018.85 1018.97 1019.11 1019.18 1019.20 1019.22 1019.25 1019.20 1019.12 1019.14 1019.21 1019.20 1019.16 1019.20 1019.19 1019.12 1019.13 1019.15
1012.01 1012.73 1013.44 1013.79 1014.10 1014.37 1014.71 1015.26 1015.65 1016.04 1016.28 1016.49 1016.74 1017.05 1017.30 1017.61 1017.83 1017.99 1018.14 1018.27 1018.37 1018.56 1018.71 1018.89 1019.01 1019.15 1019.25 1019.40 1019.44 1019.38 1019.36 1019.25 1019.16 1019.10 1019.21 1019.30 1019.29 1019.28 1019.34 1019.35 1019.38 1019.43 1019.40
1012.26 1012.83 1013.38 1013.74 1014.09 1014.41 1014.79 1015.21 1015.69 1016.09 1016.42 1016.72 1016.96 1017.12 1017.38 1017.67 1017.93 1018.20 1018.39 1018.57 1018.70 1018.76 1018.89 1019.09 1019.28 1019.42 1019.56 1019.68 1019.69 1019.61 1019.46 1019.32 1019.23 1019.12 1019.21 1019.39 1019.50 1019.47 1019.54 1019.63 1019.61 1019.62 1019.64
1012.47 1012.89 1013.49 1013.79 1014.17 1014.48 1014.83 1015.19 1015.67 1016.04 1016.42 1016.81 1017.04 1017.21 1017.41 1017.60 1017.94 1018.28 1018.59 1018.70 1018.78 1018.93 1019.06 1019.23 1019.43 1019.63 1019.79 1019.91 1019.90 1019.81 1019.63 1019.44 1019.35 1019.25 1019.25 1019.39 1019.58 1019.54 1019.64 1019.72 1019.71 1019.67 1019.67
1012.67 1013.04 1013.54 1013.90 1014.11 1014.53 1014.89 1015.17 1015.66 1016.06 1016.44 1016.87 1017.19 1017.41 1017.57 1017.67 1017.96 1018.23 1018.50 1018.84 1019.00 1019.06 1019.22 1019.37 1019.48 1019.63 1019.80 1019.93 1020.00 1019.97 1019.82 1019.61 1019.49 1019.40 1019.36 1019.59 1019.70 1019.62 1019.61 1019.72 1019.70 1019.68 1019.65
1012.68 1013.07 1013.52 1013.96 1014.24 1014.54 1014.84 1015.22 1015.62 1015.99 1016.40 1016.83 1017.14 1017.50 1017.74 1017.80 1017.98 1018.27 1018.49 1018.74 1019.02 1019.22 1019.36 1019.46 1019.56 1019.66 1019.76 1019.84 1019.85 1019.85 1019.79 1019.65 1019.53 1019.40 1019.38 1019.53 1019.58 1019.57 1019.57 1019.64 1019.68 1019.72 1019.67
1013.08 1013.31 1013.69 1014.03 1014.34 1014.65 1014.81 1015.18 1015.55 1015.87 1016.34 1016.70 1017.03 1017.41 1017.80 1017.96 1018.14 1018.36 1018.55 1018.78 1019.02 1019.19 1019.31 1019.42 1019.54 1019.68 1019.77 1019.80 1019.76 1019.73 1019.67 1019.58 1019.62 1019.51 1019.37 1019.50 1019.38 1019.43 1019.44 1019.54 1019.66 1019.72 1019.67
1013.35 1013.59 1013.91 1014.20 1014.47 1014.85 1015.15 1015.35 1015.62 1015.95 1016.29 1016.59 1016.93 1017.31 1017.73 1018.02 1018.21 1018.41 1018.62 1018.85 1019.00 1019.16 1019.27 1019.31 1019.38 1019.48 1019.54 1019.55 1019.65 1019.74 1019.67 1019.60 1019.53 1019.44 1019.42 1019.38 1019.25 1019.23 1019.25 1019.37 1019.48 1019.53 1019.64
1013.61 1013.70 1013.84 1014.24 1014.55 1014.88 1015.15 1015.47 1015.78 1016.07 1016.38 1016.61 1016.78 1017.19 1017.60 1017.95 1018.20 1018.37 1018.61 1018.78 1018.91 1019.06 1019.21 1019.27 1019.30 1019.32 1019.37 1019.40 1019.43 1019.47 1019.55 1019.56 1019.49 1019.51 1019.42 1019.34 1019.27 1019.22 1019.15 1019.21 1019.39 1019.51 1019.56
1013.27 1013.55 1013.90 1014.05 1014.40 1014.73 1015.01 1015.43 1015.79 1016.10 1016.42 1016.71 1016.87 1017.06 1017.35 1017.68 1017.99 1018.21 1018.44 1018.60 1018.73 1018.89 1019.05 1019.13 1019.20 1019.28 1019.37 1019.48 1019.50 1019.50 1019.66 1019.54 1019.57 1019.44 1019.43 1019.34 1019.33 1019.29 1019.25 1019.22 1019.23 1019.31 1019.38
1012.86 1013.22 1013.39 1013.90 1014.05 1014.40 1014.77 1015.32 1015.74 1016.00 1016.31 1016.61 1016.83 1017.05 1017.35 1017.58 1017.76 1018.01 1018.30 1018.51 1018.71 1018.78 1018.97 1019.05 1019.23 1019.32 1019.31 1019.33 1019.41 1019.48 1019.47 1019.51 1019.57 1019.48 1019.28 1019.17 1019.14 1019.21 1019.29 1019.20 1019.00 1019.08 1019.30
1012.51 1012.93 1013.30 1013.45 1013.83 1014.12 1014.48 1014.88 1015.29 1015.67 1016.04 1016.37 1016.64 1017.04 1017.39 1017.67 1017.84 1017.90 1018.12 1018.33 1018.50 1018.62 1018.88 1019.05 1019.15 1019.20 1019.18 1019.30 1019.31 1019.27 1019.37 1019.50 1019.66 1019.58 1019.57 1019.34 1019.22 1019.28 1019.28 1019.24 1019.31 1019.44 1019.50
1012.19 1012.54 1012.81 1013.15 1013.41 1013.64 1014.11 1014.55 1014.85 1015.07 1015.37 1015.64 1016.05 1016.44 1016.91 1017.31 1017.55 1017.69 1017.79 1018.02 1018.28 1018.45 1018.62 1018.81 1018.94 1019.03 1019.17 1019.24 1019.25 1019.28 1019.47 1019.55 1019.76 1019.86 1019.81 1019.59 1019.35 1019.27 1019.22 1019.33 1019.46 1019.65 1019.78
1011.17 1011.58 1012.26 1012.69 1013.00 1013.20 1013.52 1013.80 1014.12 1014.49 1014.87 1015.20 1015.38 1015.69 1016.14 1016.58 1016.95 1017.30 1017.52 1017.71 1017.82 1018.01 1018.26 1018.46 1018.71 1018.83 1019.08 1019.13 1019.50 1019.63 1019.78 1019.80 1019.89 1019.92 1019.89 1019.85 1019.74 1019.62 1019.51 1019.56 1019.72 1019.88 1019.97
1010.02 1010.64 1011.22 1011.89 1012.42 1012.65 1012.79 1013.21 1013.44 1013.74 1014.33 1014.86 1015.08 1015.23 1015.46 1015.93 1016.36 1016.62 1016.86 1017.22 1017.26 1017.45 1017.81 1018.24 1018.55 1018.90 1019.22 1019.43 1019.84 1019.97 1019.94 1019.88 1019.80 1019.88 1020.05 1020.10 1020.08 1019.99 1020.00 1020.09 1020.25 1020.34 1020.24
1010.02 1010.05 1010.53 1010.96 1011.57 1012.05 1012.22 1012.64 1012.85 1013.15 1013.47 1013.89 1014.39 1014.81 1015.15 1015.44 1015.73 1016.11 1016.45 1016.55 1016.66 1017.05 1017.30 1017.82 1018.31 1018.95 1019.27 1019.54 1019.93 1020.09 1020.13 1020.03 1020.01 1020.15 1020.31 1020.50 1020.53 1020.57 1020.61 1020.68 1020.80 1020.80 1020.64
1008.63 1009.39 1009.82 1010.30 1010.62 1011.46 1012.21 1012.56 1012.71 1012.88 1013.15 1013.36 1013.74 1014.08 1014.39 1014.77 1015.14 1015.51 1015.74 1015.93 1016.13 1016.51 1016.87 1017.30 1018.01 1018.49 1019.27 1019.76 1020.00 1020.35 1020.58 1020.67 1020.61 1020.62 1020.81 1020.87 1020.96 1021.06 1021.16 1021.15 1021.15 1021.10 1020.96
1008.15 1008.72 1009.35 1009.76 1010.03 1010.66 1011.72 1012.15 1012.41 1012.70 1012.70 1012.72 1012.92 1013.21 1013.67 1014.00 1014.32 1014.83 1015.20 1015.52 1015.79 1016.18 1016.63 1017.14 1017.56 1018.38 1018.97 1019.45 1020.07 1020.54 1020.83 1020.96 1020.99 1021.17 1021.19 1021.13 1021.21 1021.26 1021.32 1021.37 1021.34 1021.26 1021.13
1007.52 1008.09 1008.24 1008.85 1009.12 1009.99 1010.45 1011.21 1011.42 1011.14 1011.89 1012.09 1012.19 1012.41 1012.75 1013.18 1013.62 1014.03 1014.44 1015.05 1015.38 1015.87 1016.22 1016.96 1017.78 1018.39 1019.09 1019.43 1020.40 1021.13 1021.15 1021.20 1021.33 1021.39 1021.41 1021.42 1021.39 1021.43 1021.50 1021.52 1021.47 1021.44 1021.36
1006.12 1006.40 1007.14 1007.48 1008.22 1008.51 1009.03 1009.25 1010.24 1010.69 1010.86 1011.42 1011.83 1011.69 1011.92 1012.23 1012.54 1012.99 1013.63 1014.18 1014.74 1015.45 1016.03 1016.56 1017.05 1018.36 1018.92 1019.14 1019.93 1020.91 1021.45 1021.67 1021.49 1021.48 1021.57 1021.62 1021.62 1021.58 1021.51 1021.46 1021.49 1021.53 1021.57
1005.55 1005.68 1005.76 1005.72 1006.26 1006.74 1007.49 1008.81 1009.65 1010.09 1010.40 1010.47 1010.29 1010.63 1010.67 1011.07 1011.37 1012.00 1012.58 1013.31 1013.99 1014.66 1015.39 1015.81 1016.27 1017.08 1018.47 1019.37 1019.40 1019.88 1021.14 1021.18 1021.52 1021.73 1021.74 1021.79 1021.79 1021.70 1021.61 1021.55 1021.59 1021.64 1021.71
1004.77 1004.88 1005.43 1005.69 1006.06 1006.82 1007.37 1007.46 1007.76 1007.67 1008.34 1007.75 1008.53 1009.44 1009.90 1010.04 1010.63 1011.12 1011.83 1012.51 1013.12 1013.86 1014.53 1015.13 1015.64 1016.27 1017.24 1018.55 1019.41 1019.67 1020.04 1020.31 1020.97 1021.87 1021.85 1021.80 1021.71 1021.62 1021.48 1021.48 1021.65 1021.79 1021.86
1004.76 1004.72 1004.57 1004.79 1005.23 1005.50 1005.99 1006.41 1007.13 1007.25 1006.52 1007.12 1007.78 1008.35 1008.94 1009.42 1009.79 1010.19 1010.84 1011.86 1012.71 1013.31 1013.92 1014.47 1015.36 1015.88 1016.34 1017.46 1018.05 1019.19 1019.96 1020.37 1020.54 1020.99 1021.67 1021.78 1021.62 1021.40 1021.49 1021.65 1021.80 1022.00 1022.13
1005.23 1004.88 1004.75 1004.73 1004.43 1004.68 1005.17 1005.48 1005.66 1005.83 1006.37 1006.86 1006.97 1007.16 1007.64 1008.41 1008.92 1009.60 1010.18 1010.81 1011.77 1012.53 1013.06 1013.95 1014.56 1015.21 1015.96 1016.46 1017.27 1017.84 1018.59 1019.60 1020.25 1020.61 1021.23 1021.66 1021.92 1021.56 1021.68 1021.73 1021.92 1022.23 1022.59
Wind_Speed
7 12 16 15 14 17 18 17 16 16 16 16 14 14 13 14 14 13 13 13 13 15 15 15 15 15 15 15 14 13 13 12 11 11 11 11 11 12 12 12 12 8 13
12 14 15 16 15 17 18 16 16 17 16 16 15 13 12 13 13 13 12 12 13 14 15 15 14 14 13 13 11 10 9 8 7 8 8 8 9 10 11 11 11 10 12
15 16 13 15 17 17 18 17 16 16 17 17 16 14 13 12 12 12 11 11 11 13 13 14 13 12 12 11 10 10 9 8 6 3 6 3 3 7 8 9 9 10 11
14 15 13 15 17 17 18 17 16 15 15 15 15 14 14 12 11 11 11 9 10 11 11 11 11 11 11 11 9 8 8 7 5 2 2 3 2 5 6 6 8 8 9
13 16 13 16 17 17 17 17 15 14 13 12 13 14 14 12 11 10 9 8 8 9 9 10 10 10 9 9 8 7 7 7 7 4 4 3 2 2 4 6 6 7 6
13 15 13 15 16 17 17 17 15 14 13 11 12 13 14 14 12 11 8 7 8 8 8 8 8 8 8 8 7 6 6 7 6 4 3 4 3 2 4 3 4 5 5
14 12 13 14 16 17 17 17 15 14 12 11 10 10 12 13 12 10 9 7 6 7 6 6 6 6 7 7 6 5 5 6 4 4 1 4 2 2 3 2 2 3 4
14 13 11 14 15 16 16 16 15 14 13 11 10 9 9 11 11 10 9 9 7 6 5 5 4 4 5 5 5 6 6 6 4 4 4 4 4 4 3 3 2 1 1
11 11 9 9 11 13 14 14 14 14 13 12 11 10 9 9 10 9 9 8 8 6 5 4 3 3 4 4 5 6 5 5 3 2 2 3 7 7 5 4 2 2 2
11 11 9 6 7 8 8 12 12 12 12 12 11 11 9 9 8 8 8 7 7 6 5 4 3 1 2 4 5 6 4 2 3 2 2 3 9 8 5 4 3 4 3
9 12 12 9 6 6 6 8 11 12 11 11 11 11 8 4 5 6 6 7 7 6 6 4 3 2 0 3 3 3 2 1 2 2 2 4 7 6 6 2 3 4 4
14 14 12 13 11 7 6 6 6 6 5 5 5 6 5 5 5 5 6 7 8 7 6 5 5 3 1 1 2 3 2 2 1 1 1 1 4 5 7 7 4 4 4
11 12 14 13 12 10 7 5 3 3 3 3 6 5 5 4 4 3 3 3 3 5 2 3 2 1 1 1 1 2 2 3 2 2 4 6 1 2 5 5 4 4 9
10 12 14 15 13 10 5 7 6 5 5 4 5 6 4 3 4 4 3 4 4 3 4 3 2 3 3 1 1 1 3 3 2 2 4 6 4 2 5 11 13 13 12
11 12 12 13 12 11 9 7 7 8 7 7 6 7 6 5 5 4 4 4 3 3 4 4 3 3 1 1 2 4 4 5 5 2 2 8 8 8 11 13 13 13 11
14 15 13 14 13 12 12 12 9 8 8 7 7 8 10 7 5 5 4 4 4 4 4 4 3 3 3 3 4 5 4 4 4 5 3 4 9 10 12 13 13 12 10
16 14 16 16 14 15 16 12 10 9 8 8 7 9 11 9 8 7 5 5 5 5 5 4 3 3 4 4 5 4 3 5 5 6 4 4 4 10 10 12 13 11 8
12 17 15 14 16 16 15 11 9 9 9 8 7 6 9 9 9 7 6 6 5 5 5 4 4 4 4 4 3 2 3 3 5 5 5 4 4 4 8 12 12 12 10
18 15 16 16 17 15 12 8 9 9 8 8 7 7 10 10 10 8 7 6 5 5 5 6 3 4 4 4 4 3 3 4 4 4 5 6 6 5 3 8 9 10 11
14 13 13 13 15 14 9 8 7 7 9 8 9 9 10 10 11 9 7 6 6 5 5 4 5 3 3 5 4 4 3 3 3 3 4 4 4 5 4 4 4 4 10
13 15 17 16 16 12 12 12 11 14 10 10 10 12 12 11 12 11 8 7 7 8 8 7 4 5 2 4 5 3 2 2 3 2 2 3 4 3 4 3 2 3 3
17 19 18 19 18 16 13 13 10 10 10 9 8 11 13 14 13 12 11 10 10 7 6 8 6 4 2 4 4 3 2 2 1 1 2 3 2 2 3 3 4 4 3
16 17 20 22 21 19 18 10 5 3 2 9 12 12 14 15 14 14 13 11 11 10 10 11 9 8 5 1 2 5 3 5 2 0 2 1 2 1 2 3 4 4 4
14 14 14 16 17 16 16 15 20 17 14 15 12 11 12 14 14 13 12 12 13 10 10 10 8 5 6 5 2 2 3 3 4 2 1 2 1 1 3 3 3 4 5
10 12 13 11 13 16 18 20 14 17 15 8 10 14 13 11 14 14 13 13 12 9 9 11 8 7 4 6 5 4 2 3 3 3 2 2 2 1 1 1 3 4 6
8 8 8 8 15 15 17 20 21 22 18 12 12 12 12 9 10 13 13 13 12 11 11 10 10 10 6 5 4 4 5 5 3 3 2 2 2 2 1 2 4 4 4
Wind_Direction
189 162 162 159 149 130 125 125 119 114 113 111 111 113 113 111 109 108 106 104 102 100 100 98 95 90 85 81 77 74 71 65 56 61 70 74 77 77 79 75 69 63 68
139 158 159 156 147 134 129 127 124 122 121 119 116 114 111 111 112 111 110 108 107 105 104 101 95 90 85 81 76 71 67 64 68 64 60 62 80 83 86 81 75 71 68
142 159 158 155 146 139 132 132 128 127 128 127 122 118 114 114 115 115 110 112 111 111 109 103 98 91 85 75 66 59 48 32 20 33 84 80 95 97 98 93 86 79 72
143 157 159 155 148 142 136 135 132 135 132 129 128 125 124 123 122 118 113 109 114 115 111 105 97 93 84 76 66 53 44 33 30 63 148 131 81 101 95 100 90 83 79
142 159 161 155 149 143 139 136 138 137 134 133 133 132 132 130 126 122 113 110 117 118 114 105 98 90 82 74 66 52 35 34 31 54 161 152 110 92 90 84 90 92 87
145 159 156 151 147 146 144 141 142 141 140 143 144 144 143 139 135 130 122 122 124 122 112 104 93 84 75 75 71 57 26 32 39 41 119 164 123 136 103 125 128 118 109
152 157 154 150 149 151 148 146 146 146 149 153 153 153 150 145 143 142 139 130 120 119 110 97 85 77 71 68 70 65 40 30 36 31 79 130 152 167 152 157 135 124 115
152 152 151 154 154 154 152 150 151 153 158 160 158 160 160 151 149 150 150 147 140 130 129 119 96 72 60 59 65 55 38 33 35 39 86 142 181 194 191 190 207 197 104
145 145 147 158 159 159 155 155 157 161 166 166 167 166 165 159 156 157 158 157 157 157 159 144 116 71 40 28 28 28 16 29 30 23 122 171 192 201 205 203 223 254 253
150 157 158 151 156 162 164 160 162 168 174 172 171 169 169 169 170 165 163 166 174 180 177 169 157 130 40 19 3 358 347 22 11 39 125 192 198 205 218 239 242 246 268
164 169 173 168 164 160 154 171 171 178 181 177 175 172 164 169 177 178 179 190 195 194 194 205 212 207 52 7 355 343 40 18 23 4 353 198 211 216 242 235 279 309 317
177 179 182 182 181 161 165 167 171 180 179 181 180 174 168 172 177 182 194 202 207 205 207 214 224 246 40 22 324 356 44 353 23 23 55 276 240 282 325 347 275 264 264
178 182 185 189 185 172 167 165 172 170 169 177 186 178 176 175 184 182 184 205 206 220 209 218 247 248 237 217 17 7 12 38 51 36 23 14 194 299 339 22 24 82 89
184 185 189 188 187 182 165 175 179 179 180 184 190 179 173 184 194 194 191 190 196 199 205 208 209 229 253 317 296 68 78 61 61 54 36 40 76 109 113 101 91 90 90
195 195 190 187 187 182 177 182 185 192 189 190 184 185 180 185 196 192 192 188 202 198 195 206 207 220 243 211 72 104 93 82 79 79 48 51 79 96 103 101 98 93 87
192 196 191 193 192 186 190 188 192 195 197 192 191 194 191 188 192 193 195 197 198 198 196 194 199 182 147 131 86 82 92 94 100 95 80 57 70 79 81 90 84 77 73
206 191 192 193 194 196 197 194 194 196 192 202 206 201 194 190 198 195 193 195 207 194 193 179 168 116 112 98 98 93 106 107 102 98 98 81 63 58 69 76 58 46 41
205 204 192 195 199 203 203 197 198 198 195 197 197 199 203 198 195 198 206 212 195 187 179 172 153 132 131 132 123 85 100 100 102 97 87 73 57 52 46 56 52 42 37
205 201 201 200 201 202 206 204 205 200 203 200 194 198 200 201 197 198 203 215 179 183 182 165 147 137 153 138 124 101 67 68 67 84 83 76 69 69 61 44 45 42 34
211 206 205 205 202 192 198 200 198 202 207 204 205 204 197 205 199 197 201 204 179 176 167 165 145 105 147 143 110 99 81 73 85 90 96 92 86 74 62 49 38 20 31
204 202 204 200 201 187 192 200 202 211 208 213 207 205 200 203 201 200 197 192 180 183 179 172 119 139 130 155 113 41 35 68 87 98 108 92 84 72 72 60 50 36 19
212 207 203 208 200 200 201 203 207 206 215 215 216 210 204 203 196 195 190 190 186 174 164 167 154 139 109 177 135 109 150 326 314 175 128 125 111 81 67 68 46 43 41
225 216 210 209 206 202 202 191 187 169 175 205 211 209 205 202 197 199 192 187 184 183 186 183 170 153 144 190 241 139 114 214 136 291 204 156 67 88 71 40 46 53 53
241 230 218 219 214 218 201 195 199 204 206 217 213 214 209 200 197 194 191 189 187 186 188 186 177 152 132 153 112 80 52 131 162 167 267 229 285 114 77 25 38 52 43
256 240 234 219 216 208 200 207 210 220 220 204 203 205 201 193 194 195 189 187 192 190 186 186 168 162 158 146 142 148 122 67 75 123 184 268 327 272 38 8 60 68 46
286 292 273 233 218 206 207 210 210 216 219 211 202 196 195 194 188 193 190 188 185 184 186 187 182 167 164 138 136 142 150 159 178 147 146 161 236 285 278 122 84 78 55